CARTOSAT-2F (43111 NORAD) Tracking and Keplerian Element Data

This shows tracking and keplerian element data for the satellite.

Feedback or suggestion? Click here.




ElementValue
Catalog43111
NameCARTOSAT-2F
Epoch Orbit20557
Epoch Day270.16741546
Epoch Year2021
RAAN328.5735
Inclination97.4883
Eccentricity0.0003421
Argument of Perigee214.8494
Mean Anonmoly230.0912
Mean Motion15.19231997
Decay Rate1.058E-05
L11 43111U 18004A 21270.16741546 .00001058 00000-0 53486-4 0 9993
L22 43111 97.4883 328.5735 0003421 214.8494 230.0912 15.19231997205579

Live tracking and technical data element details for CARTOSAT-2F (NORAD 43111). CARTOSAT-2F can be tracked NOW for your location showing map with azimuth and elevation plus other details from your city location.

Track the satellite on the map from your city or location and see movement details for azimuth, elevation, latitude, longitude, range, height, and movement on the map or in text.







IsCatalogInMostPopularTable: catalog: 43111, numindb: 578
Update: records affected: 1



GetName: 43111 CARTOSAT-2F

Hit Count: updated at: Tue, 28 Sep 2021 16:55:17 GMT